"Pseudo-MPEC" for A10eeCJ

Created 2019 Jun 17 13:07:11 UT using Find_Orb

Click here for an explanation of pseudo-MPECs

 
 Astrometry: 
     A10eeCJ  C2019 06 10.57733622 43 57.36 +77 43 13.8    ~6B1b 18.90oVNEOCPT05
     A10eeCJ  C2019 06 10.57826622 43 57.13 +77 43 14.2    ~6B1b 18.83oVNEOCPT05
     A10eeCJ  C2019 06 10.58012822 43 57.18 +77 43 16.1    ~6B1b 18.90oVNEOCPT05
     A10eeCJ  C2019 06 10.58105722 43 57.36 +77 43 16.0    ~6B1b 19.00oVNEOCPT05
     A10eeCJ  C2019 06 10.58517322 43 56.84 +77 43 19.1    ~6B1b 18.86oVNEOCPT05

Station data:
(T05) ATLAS-HKO, Haleakala  (N20.707573 W156.257010)  US/Hawaii.  Observers
   L. Denneau, A. Heinze, H. Weiland, J. Tonry, H. Flewelling, A.
   Fitzsimmons, D. Young, B. Stalder. Measurers L. Denneau, A. Heinze, J.
   Tonry. 0.5-m f/2.0 Schmidt + CCD.

Orbital elements:  A10eeCJ
   Perihelion 2019 Nov 17.321727 +/- 389 TT =  7:43:17 (JD 2458804.821727)
Epoch 2019 Jun 11.0 TT = JDT 2458645.5   Earth MOID: 0.0497   AutoNEOCP
M 183.54763479 +/- 110              (J2000 ecliptic)
n   1.10752230 +/- 0.541            Peri.  239.74049 +/- 70
a   0.92519738 +/- 0.301            Node   197.82615 +/- 80
e   0.0580759 +/- 0.251             Incl.    7.34100 +/- 23
P   0.89/325.04d           H 19.7   G  0.15   U 12.3  SR
q 0.87146566 +/- 1.27    Q 0.97892910 +/- 6.37
From 5 observations 2019 June 10 (11.3 min); mean residual 0".34
Residuals in arcseconds: 
190610 T05  .08+  .05+    190610 T05  .03-  .43+    190610 T05  .25-  .00     
190610 T05  .50-  .19-    190610 T05  .70+  .31-    

Ephemerides (geocentric):
Date (UTC) HH   RA              Dec         delta   r     elong  mag " sig PA
---- -- -- --  -------------   -----------  ------ ------ -----  --- ---- ---
2019 06 17 13  22 58 23.192   +78 37 23.33  .12704 .97808  69.2 19.0  20d  79
2019 06 17 14  22 58 31.148   +78 37 43.14  .12708 .97807  69.2 19.0  20d  78
2019 06 17 15  22 58 39.138   +78 38 02.94  .12712 .97807  69.2 19.0  20d  78
2019 06 17 16  22 58 47.162   +78 38 22.75  .12715 .97806  69.2 19.0  20d  78
2019 06 17 17  22 58 55.219   +78 38 42.55  .12719 .97805  69.2 19.0  20d  78
2019 06 17 18  22 59 03.311   +78 39 02.35  .12723 .97804  69.2 19.0  20d  78
2019 06 17 19  22 59 11.436   +78 39 22.16  .12727 .97804  69.2 19.0  20d  78
2019 06 17 20  22 59 19.596   +78 39 41.96  .12731 .97803  69.2 19.0  20d  78
2019 06 17 21  22 59 27.790   +78 40 01.76  .12734 .97802  69.2 19.0  20d  78
2019 06 17 22  22 59 36.018   +78 40 21.57  .12738 .97801  69.2 19.0  20d  78
2019 06 17 23  22 59 44.280   +78 40 41.37  .12742 .97801  69.2 19.0  20d  78
2019 06 18 00  22 59 52.576   +78 41 01.17  .12746 .97800  69.2 19.0  20d  78
2019 06 18 01  23 00 00.906   +78 41 20.97  .12750 .97799  69.2 19.0  20d  78
2019 06 18 02  23 00 09.271   +78 41 40.77  .12753 .97798  69.2 19.0  20d  78
2019 06 18 03  23 00 17.670   +78 42 00.58  .12757 .97798  69.2 19.0  20d  78
2019 06 18 04  23 00 26.103   +78 42 20.38  .12761 .97797  69.2 19.1  20d  78
2019 06 18 05  23 00 34.571   +78 42 40.18  .12765 .97796  69.2 19.1  20d  78
2019 06 18 06  23 00 43.073   +78 42 59.98  .12769 .97795  69.2 19.1  20d  78
2019 06 18 07  23 00 51.609   +78 43 19.77  .12772 .97794  69.2 19.1  20d  78
2019 06 18 08  23 01 00.180   +78 43 39.57  .12776 .97794  69.2 19.1  20d  78
2019 06 18 09  23 01 08.785   +78 43 59.37  .12780 .97793  69.2 19.1  20d  78
2019 06 18 10  23 01 17.424   +78 44 19.16  .12784 .97792  69.2 19.1  20d  78
2019 06 18 11  23 01 26.099   +78 44 38.96  .12787 .97791  69.2 19.1  20d  78
2019 06 18 12  23 01 34.807   +78 44 58.75  .12791 .97790  69.2 19.1  20d  77
2019 06 18 13  23 01 43.551   +78 45 18.55  .12795 .97790  69.2 19.1  20d  77
2019 06 18 14  23 01 52.329   +78 45 38.34  .12799 .97789  69.2 19.1  20d  77
2019 06 18 15  23 02 01.141   +78 45 58.13  .12802 .97788  69.2 19.1  20d  77
2019 06 18 16  23 02 09.989   +78 46 17.92  .12806 .97787  69.2 19.1  20d  77
2019 06 18 17  23 02 18.871   +78 46 37.71  .12810 .97786  69.2 19.1  20d  77
2019 06 18 18  23 02 27.787   +78 46 57.49  .12813 .97786  69.2 19.1  21d  77
2019 06 18 19  23 02 36.739   +78 47 17.28  .12817 .97785  69.2 19.1  21d  77
2019 06 18 20  23 02 45.725   +78 47 37.06  .12821 .97784  69.2 19.1  22d  77
2019 06 18 21  23 02 54.747   +78 47 56.84  .12825 .97783  69.2 19.1  22d  77
2019 06 18 22  23 03 03.803   +78 48 16.62  .12828 .97782  69.2 19.1  23d  77
2019 06 18 23  23 03 12.894   +78 48 36.40  .12832 .97782  69.2 19.1  23d  77
2019 06 19 00  23 03 22.020   +78 48 56.18  .12836 .97781  69.2 19.1  24d  77
2019 06 19 01  23 03 31.181   +78 49 15.95  .12839 .97780  69.2 19.1  24d  78
2019 06 19 02  23 03 40.377   +78 49 35.73  .12843 .97779  69.2 19.1  25d  78
2019 06 19 03  23 03 49.608   +78 49 55.50  .12847 .97778  69.2 19.1  25d  78
2019 06 19 04  23 03 58.874   +78 50 15.27  .12850 .97777  69.2 19.1  25d  78
2019 06 19 05  23 04 08.175   +78 50 35.03  .12854 .97777  69.2 19.1  25d  78
2019 06 19 06  23 04 17.511   +78 50 54.80  .12858 .97776  69.2 19.1  25d  78
2019 06 19 07  23 04 26.883   +78 51 14.56  .12861 .97775  69.2 19.1  26d  78
2019 06 19 08  23 04 36.290   +78 51 34.32  .12865 .97774  69.2 19.1  26d  78
2019 06 19 09  23 04 45.732   +78 51 54.08  .12869 .97773  69.2 19.1  26d  78
2019 06 19 10  23 04 55.209   +78 52 13.83  .12872 .97772  69.2 19.1  26d  78
2019 06 19 11  23 05 04.721   +78 52 33.58  .12876 .97771  69.2 19.1  26d  78
2019 06 19 12  23 05 14.269   +78 52 53.33  .12880 .97771  69.2 19.1  26d  78